Back to catalog

RIDU-SAT 1

AliveScienceSSO
NORAD 64532·PAYLOAD·🇮🇩 Indonesia
This satellite name has not been confirmed by official sources yet.

Launched Jun 23, 2025 from Vandenberg Space Force Base

Loading…

Next Passes (next 24 hours)

TLE

FreshSource: Space-Track

Epoch: Sep 14, 2026, 13:48 UTC

1 64532U 25135E   26257.57507280  .00009249  00000-0  34247-3 0  9999
2 64532  97.4816  13.9584 0003784 194.0982 166.0152 15.27878265 68569

Track RIDU-SAT 1 in real time with AllMySat

Download on the App Store